When you browse on this site, cookies collect data to enhance your experience and personalize the content and advertising you see.
Visit our Privacy Policy to learn more. By continuing to use the site, you agree to this use of cookies and data.
  • In Hungary
  • List of Countries
  • For 7 days
  • Water Temperature
  • Satellite Maps
  • Weather Map
  • News
  • Weather Widgets
  • user-avatar
    Login

    Hourly Weather Rozaniec

    Today, 17 January, Thursday

    Time Temperature Precipitation Wind Pressure Humidity
    00:00 0°C° 0 mm 4 mps 740 mmHg 80%
    01:00 +1°C° 0 mm 3 mps 740 mmHg 82%
    02:00 +1°C° 0 mm 4 mps 739 mmHg 78%
    03:00 +1°C° 0 mm 5 mps 739 mmHg 73%
    04:00 +1°C° 0 mm 6 mps 738 mmHg 69%
    05:00 +1°C° 0 mm 6 mps 738 mmHg 69%
    06:00 +1°C° 0 mm 5 mps 738 mmHg 70%
    07:00 +1°C° 0 mm 5 mps 738 mmHg 70%
    08:00 +2°C° 0 mm 5 mps 739 mmHg 71%
    09:00 +2°C° 0 mm 5 mps 739 mmHg 71%
    10:00 +3°C° 0 mm 5 mps 739 mmHg 72%
    11:00 +3°C° 0 mm 5 mps 739 mmHg 71%
    12:00 +5°C° 0 mm 4 mps 739 mmHg 69%
    13:00 +6°C° 0 mm 4 mps 739 mmHg 68%
    14:00 +6°C° 0 mm 4 mps 739 mmHg 71%
    15:00 +5°C° 0 mm 4 mps 739 mmHg 74%
    16:00 +5°C° 0 mm 4 mps 739 mmHg 77%
    17:00 +5°C° 0 mm 4 mps 739 mmHg 79%
    18:00 +4°C° 0 mm 4 mps 738 mmHg 81%
    19:00 +4°C° 0 mm 4 mps 738 mmHg 83%
    20:00 +4°C° 0 mm 4 mps 738 mmHg 81%
    21:00 +3°C° 0 mm 5 mps 738 mmHg 79%
    22:00 +3°C° 0 mm 5 mps 739 mmHg 77%
    23:00 +2°C° 0.1 mm 6 mps 739 mmHg 76%

    Tomorrow, 18 January, Friday

    Time Temperature Precipitation Wind Pressure Humidity
    00:00 +2°C° 0.1 mm 7 mps 739 mmHg 75%
    01:00 +2°C° 0.1 mm 7 mps 740 mmHg 73%
    02:00 0°C° 0 mm 7 mps 740 mmHg 73%
    03:00 -1°C° 0 mm 7 mps 741 mmHg 73%
    04:00 -1°C° 0 mm 7 mps 741 mmHg 73%
    05:00 -2°C° 0 mm 6 mps 742 mmHg 75%
    06:00 -2°C° 0 mm 6 mps 743 mmHg 78%
    07:00 -2°C° 0 mm 5 mps 743 mmHg 80%
    08:00 -3°C° 0 mm 6 mps 744 mmHg 77%
    09:00 -3°C° 0 mm 6 mps 745 mmHg 73%
    10:00 -3°C° 0 mm 7 mps 746 mmHg 70%
    11:00 -2°C° 0 mm 7 mps 747 mmHg 68%
    12:00 -2°C° 0 mm 7 mps 747 mmHg 65%
    13:00 -2°C° 0 mm 6 mps 748 mmHg 62%
    14:00 -2°C° 0 mm 5 mps 749 mmHg 64%
    15:00 -2°C° 0 mm 4 mps 749 mmHg 66%
    16:00 -2°C° 0 mm 4 mps 750 mmHg 67%
    17:00 -2°C° 0 mm 3 mps 750 mmHg 70%
    18:00 -2°C° 0 mm 3 mps 751 mmHg 73%
    19:00 -4°C° 0 mm 3 mps 751 mmHg 76%
    20:00 -4°C° 0 mm 3 mps 752 mmHg 76%
    21:00 -3°C° 0 mm 2 mps 752 mmHg 77%
    22:00 -3°C° 0 mm 2 mps 752 mmHg 77%
    23:00 -3°C° 0 mm 2 mps 752 mmHg 75%

    Day after tomorrow, 19 January, Saturday

    Time Temperature Precipitation Wind Pressure Humidity
    00:00 -3°C° 0 mm 2 mps 752 mmHg 72%
    01:00 -3°C° 0 mm 2 mps 752 mmHg 70%
    02:00 -3°C° 0 mm 2 mps 752 mmHg 68%
    03:00 -3°C° 0 mm 2 mps 752 mmHg 67%
    04:00 -2°C° 0 mm 2 mps 752 mmHg 65%
    05:00 -2°C° 0 mm 2 mps 752 mmHg 66%
    06:00 -3°C° 0 mm 2 mps 752 mmHg 67%
    07:00 -3°C° 0 mm 2 mps 752 mmHg 68%
    08:00 -2°C° 0 mm 2 mps 752 mmHg 65%
    09:00 +1°C° 0 mm 1 mps 753 mmHg 63%
    10:00 +1°C° 0 mm 1 mps 753 mmHg 61%
    11:00 +2°C° 0 mm 1 mps 752 mmHg 58%
    12:00 +2°C° 0 mm 1 mps 752 mmHg 56%
    13:00 +3°C° 0 mm 1 mps 752 mmHg 54%
    14:00 +2°C° 0 mm 1 mps 751 mmHg 57%
    15:00 +2°C° 0 mm 1 mps 751 mmHg 59%
    16:00 +1°C° 0 mm 1 mps 751 mmHg 62%
    17:00 +1°C° 0 mm 1 mps 751 mmHg 62%
    18:00 -2°C° 0 mm 2 mps 751 mmHg 63%
    19:00 -2°C° 0 mm 2 mps 751 mmHg 63%
    20:00 -3°C° 0 mm 2 mps 751 mmHg 63%
    21:00 -3°C° 0 mm 2 mps 751 mmHg 62%
    22:00 -3°C° 0 mm 2 mps 750 mmHg 62%
    23:00 -3°C° 0 mm 2 mps 750 mmHg 62%

    20 January, Sunday

    Time Temperature Precipitation Wind Pressure Humidity
    00:00 -1°C° 0 mm 1 mps 750 mmHg 62%
    01:00 -1°C° 0 mm 1 mps 750 mmHg 63%
    02:00 -2°C° 0 mm 1 mps 750 mmHg 63%
    03:00 -2°C° 0 mm 1 mps 749 mmHg 63%
    04:00 -2°C° 0 mm 1 mps 749 mmHg 64%
    05:00 -2°C° 0 mm 1 mps 749 mmHg 64%
    06:00 -2°C° 0 mm 1 mps 749 mmHg 65%
    07:00 -2°C° 0 mm 1 mps 749 mmHg 65%
    08:00 -3°C° 0 mm 0 mps 749 mmHg 63%
    09:00 -2°C° 0 mm 0 mps 750 mmHg 60%
    10:00 -1°C° 0 mm 0 mps 750 mmHg 57%
    11:00 -1°C° 0 mm 0 mps 750 mmHg 54%
    12:00 0°C° 0 mm 0 mps 750 mmHg 51%
    13:00 +2°C° 0 mm 1 mps 749 mmHg 48%
    14:00 +1°C° 0 mm 1 mps 749 mmHg 50%
    15:00 0°C° 0 mm 1 mps 750 mmHg 52%
    16:00 0°C° 0 mm 1 mps 750 mmHg 55%
    17:00 -1°C° 0 mm 1 mps 750 mmHg 56%
    18:00 -2°C° 0 mm 0 mps 750 mmHg 57%
    19:00 -2°C° 0 mm 0 mps 751 mmHg 59%
    20:00 -3°C° 0 mm 0 mps 751 mmHg 59%
    21:00 -3°C° 0 mm 0 mps 751 mmHg 59%
    22:00 -3°C° 0 mm 0 mps 752 mmHg 59%
    23:00 -3°C° 0 mm 0 mps 752 mmHg 59%

    21 January, Monday

    Time Temperature Precipitation Wind Pressure Humidity
    00:00 -3°C° 0 mm 0 mps 752 mmHg 60%
    01:00 -3°C° 0 mm 0 mps 752 mmHg 60%
    02:00 -3°C° 0 mm 0 mps 752 mmHg 60%
    03:00 -3°C° 0 mm 0 mps 752 mmHg 60%
    04:00 -4°C° 0 mm 0 mps 752 mmHg 60%
    05:00 -4°C° 0 mm 0 mps 752 mmHg 60%
    06:00 -3°C° 0 mm 1 mps 752 mmHg 60%
    07:00 -3°C° 0 mm 1 mps 752 mmHg 60%
    08:00 -2°C° 0 mm 1 mps 752 mmHg 57%
    09:00 -4°C° 0 mm 2 mps 752 mmHg 54%
    10:00 -3°C° 0 mm 2 mps 752 mmHg 51%
    11:00 -2°C° 0 mm 2 mps 752 mmHg 47%
    12:00 -1°C° 0 mm 3 mps 752 mmHg 43%
    13:00 -1°C° 0 mm 3 mps 752 mmHg 39%
    14:00 -1°C° 0 mm 3 mps 751 mmHg 42%
    15:00 -2°C° 0 mm 3 mps 751 mmHg 45%
    16:00 -2°C° 0 mm 3 mps 750 mmHg 48%
    17:00 -4°C° 0 mm 3 mps 750 mmHg 51%
    18:00 -4°C° 0 mm 3 mps 750 mmHg 55%
    19:00 -5°C° 0 mm 3 mps 750 mmHg 58%
    20:00 -5°C° 0 mm 3 mps 750 mmHg 59%
    21:00 -5°C° 0 mm 3 mps 750 mmHg 60%
    22:00 -5°C° 0 mm 3 mps 750 mmHg 62%
    23:00 -5°C° 0 mm 3 mps 750 mmHg 62%

    22 January, Tuesday

    Time Temperature Precipitation Wind Pressure Humidity
    00:00 -5°C° 0 mm 3 mps 749 mmHg 62%
    01:00 -5°C° 0 mm 2 mps 749 mmHg 63%
    02:00 -5°C° 0 mm 2 mps 749 mmHg 63%
    03:00 -6°C° 0 mm 3 mps 748 mmHg 63%
    04:00 -6°C° 0 mm 3 mps 748 mmHg 63%
    05:00 -6°C° 0 mm 3 mps 747 mmHg 62%
    06:00 -6°C° 0 mm 3 mps 747 mmHg 62%
    07:00 -6°C° 0 mm 3 mps 747 mmHg 62%
    08:00 -6°C° 0 mm 3 mps 747 mmHg 60%
    09:00 -5°C° 0 mm 3 mps 746 mmHg 58%
    10:00 -4°C° 0 mm 3 mps 746 mmHg 56%
    11:00 -4°C° 0 mm 3 mps 746 mmHg 55%
    12:00 -2°C° 0 mm 3 mps 745 mmHg 54%
    13:00 -1°C° 0 mm 3 mps 745 mmHg 53%
    14:00 -2°C° 0 mm 3 mps 744 mmHg 56%
    15:00 -2°C° 0 mm 3 mps 744 mmHg 58%
    16:00 -2°C° 0 mm 3 mps 744 mmHg 60%
    17:00 -4°C° 0 mm 3 mps 744 mmHg 62%
    18:00 -4°C° 0 mm 2 mps 744 mmHg 63%
    19:00 -4°C° 0 mm 2 mps 744 mmHg 65%
    20:00 -4°C° 0 mm 2 mps 744 mmHg 68%
    21:00 -4°C° 0 mm 2 mps 744 mmHg 71%
    22:00 -5°C° 0 mm 2 mps 744 mmHg 74%
    23:00 -5°C° 0 mm 2 mps 744 mmHg 77%
    Show more